�������l�o���
Date,Time,MP-1(��Sv/h),MP-2(��Sv/h),MP-3(��Sv/h),MP-4(��Sv/h),MP-5(��Sv/h),MP-6(��Sv/h),MP-7(��Sv/h),MP-8(��Sv/h),����,����(m/s),���J
2018/01/02,00:00,0.897,1.498,0.939,1.779,1.195,0.493,0.882,0.846,�k�k��,7.1,��
2018/01/02,00:10,0.898,1.496,0.938,1.778,1.194,0.493,0.882,0.847,�k�k��,6.5,��
2018/01/02,00:20,0.898,1.495,0.938,1.776,1.197,0.493,0.882,0.845,�k�k��,5.8,��
2018/01/02,00:30,0.897,1.496,0.940,1.777,1.196,0.494,0.880,0.846,�k�k��,6.5,��
2018/01/02,00:40,0.898,1.496,0.938,1.775,1.196,0.493,0.879,0.845,�k�k��,6.2,��
2018/01/02,00:50,0.899,1.494,0.939,1.776,1.196,0.494,0.881,0.845,�k�k��,6.4,��
2018/01/02,01:00,0.895,1.493,0.941,1.777,1.195,0.492,0.879,0.844,�k�k��,5.8,��
2018/01/02,01:10,0.897,1.496,0.939,1.776,1.193,0.493,0.881,0.844,�k�k��,6.1,��
2018/01/02,01:20,0.897,1.495,0.940,1.777,1.193,0.493,0.883,0.845,�k�k��,6.8,��
2018/01/02,01:30,0.897,1.494,0.939,1.776,1.194,0.492,0.879,0.846,�k�k��,5.5,��
2018/01/02,01:40,0.897,1.494,0.940,1.775,1.194,0.493,0.880,0.844,�k�k��,5.7,��
2018/01/02,01:50,0.896,1.495,0.939,1.778,1.194,0.491,0.880,0.846,�k��,5.5,��
2018/01/02,02:00,0.896,1.495,0.939,1.775,1.194,0.493,0.882,0.844,�k��,6.1,��
2018/01/02,02:10,0.897,1.496,0.938,1.776,1.194,0.494,0.881,0.845,�k�k��,6.0,��
2018/01/02,02:20,0.896,1.491,0.938,1.776,1.194,0.492,0.881,0.845,�k�k��,5.2,��
2018/01/02,02:30,0.897,1.492,0.939,1.776,1.195,0.492,0.881,0.844,�k�k��,4.9,��
2018/01/02,02:40,0.894,1.495,0.939,1.776,1.193,0.493,0.879,0.845,�k�k��,3.9,��
2018/01/02,02:50,0.898,1.493,0.937,1.776,1.193,0.494,0.880,0.846,�k��,3.0,��
2018/01/02,03:00,0.896,1.494,0.937,1.772,1.193,0.492,0.880,0.847,�k��,2.0,��
2018/01/02,03:10,0.896,1.495,0.938,1.774,1.192,0.494,0.878,0.845,�k��,1.9,��
2018/01/02,03:20,0.896,1.493,0.937,1.773,1.193,0.492,0.880,0.846,���k��,2.3,��
2018/01/02,03:30,0.896,1.494,0.939,1.773,1.191,0.494,0.882,0.845,�k�k��,4.1,��
2018/01/02,03:40,0.897,1.494,0.940,1.773,1.191,0.493,0.881,0.846,�k�k��,6.9,��
2018/01/02,03:50,0.896,1.494,0.939,1.774,1.193,0.493,0.882,0.845,�k�k��,5.1,��
2018/01/02,04:00,0.895,1.496,0.938,1.775,1.194,0.492,0.881,0.846,�k�k��,3.7,��
2018/01/02,04:10,0.895,1.495,0.938,1.775,1.193,0.493,0.880,0.844,�k�k��,2.6,��
2018/01/02,04:20,0.895,1.494,0.935,1.773,1.190,0.492,0.881,0.847,�k�k��,1.2,��
2018/01/02,04:30,0.896,1.492,0.937,1.775,1.192,0.491,0.879,0.846,���k��,2.0,��
2018/01/02,04:40,0.894,1.491,0.937,1.775,1.192,0.493,0.880,0.844,��,3.4,��
2018/01/02,04:50,0.895,1.494,0.936,1.771,1.192,0.494,0.881,0.847,�k��,4.6,��
2018/01/02,05:00,0.894,1.494,0.937,1.773,1.192,0.492,0.881,0.845,�k��,5.0,��
2018/01/02,05:10,0.894,1.494,0.939,1.773,1.195,0.492,0.878,0.846,�k��,5.1,��
2018/01/02,05:20,0.895,1.493,0.938,1.774,1.194,0.493,0.881,0.845,�k��,3.6,��
2018/01/02,05:30,0.896,1.494,0.937,1.773,1.192,0.494,0.880,0.845,�k�k��,2.5,��
2018/01/02,05:40,0.893,1.493,0.937,1.773,1.193,0.493,0.881,0.844,�k��,2.0,��
2018/01/02,05:50,0.895,1.490,0.935,1.772,1.191,0.493,0.880,0.845,���k��,1.2,��
2018/01/02,06:00,0.894,1.495,0.936,1.774,1.191,0.492,0.881,0.845,�k��,1.4,��
2018/01/02,06:10,0.898,1.491,0.937,1.773,1.194,0.494,0.883,0.845,�k�k��,3.7,��
2018/01/02,06:20,0.893,1.492,0.936,1.773,1.192,0.492,0.879,0.847,�k�k��,3.0,��
2018/01/02,06:30,0.896,1.491,0.938,1.773,1.190,0.492,0.880,0.843,�k,3.1,��
2018/01/02,06:40,0.895,1.492,0.936,1.773,1.192,0.493,0.878,0.844,�k��,3.7,��
2018/01/02,06:50,0.894,1.494,0.938,1.772,1.192,0.491,0.878,0.844,�k��,5.4,��
2018/01/02,07:00,0.894,1.493,0.937,1.775,1.191,0.492,0.878,0.843,�k��,3.9,��
2018/01/02,07:10,0.893,1.493,0.936,1.773,1.189,0.493,0.878,0.845,���k��,4.6,��
2018/01/02,07:20,0.894,1.495,0.937,1.773,1.191,0.491,0.881,0.845,���k��,5.7,��
2018/01/02,07:30,0.893,1.493,0.938,1.776,1.192,0.492,0.880,0.846,���k��,6.6,��
2018/01/02,07:40,0.895,1.494,0.937,1.775,1.191,0.492,0.881,0.845,�k��,7.3,��
2018/01/02,07:50,0.896,1.497,0.937,1.773,1.191,0.492,0.882,0.846,�k��,7.5,��
2018/01/02,08:00,0.895,1.493,0.941,1.777,1.190,0.491,0.882,0.845,�k��,8.3,��
2018/01/02,08:10,0.896,1.493,0.940,1.777,1.194,0.494,0.881,0.845,�k��,6.5,��
2018/01/02,08:20,0.895,1.495,0.939,1.776,1.194,0.493,0.882,0.844,�k��,7.1,��
2018/01/02,08:30,0.895,1.496,0.939,1.778,1.194,0.493,0.880,0.847,�k��,7.0,��
2018/01/02,08:40,0.897,1.495,0.938,1.779,1.193,0.494,0.882,0.846,�k��,6.5,��
2018/01/02,08:50,0.896,1.497,0.940,1.775,1.195,0.493,0.882,0.845,�k��,6.1,��
2018/01/02,09:00,0.899,1.498,0.940,1.778,1.192,0.492,0.883,0.846,�k�k��,3.6,��
2018/01/02,09:10,0.896,1.495,0.938,1.777,1.193,0.494,0.884,0.845,�k�k��,4.6,��
2018/01/02,09:20,0.897,1.498,0.943,1.776,1.194,0.494,0.882,0.847,�k�k��,4.4,��
2018/01/02,09:30,0.898,1.495,0.943,1.780,1.195,0.494,0.883,0.846,�k�k��,4.1,��
2018/01/02,09:40,0.898,1.498,0.939,1.778,1.194,0.494,0.884,0.845,�k�k��,2.3,��
2018/01/02,09:50,0.899,1.498,0.942,1.777,1.195,0.494,0.884,0.846,�k,2.2,��
2018/01/02,10:00,0.899,1.497,0.942,1.779,1.194,0.495,0.881,0.845,�k,0.6,��
2018/01/02,10:10,0.897,1.494,0.941,1.779,1.193,0.494,0.883,0.847,�k�k��,2.3,��
2018/01/02,10:20,0.898,1.494,0.939,1.780,1.194,0.495,0.882,0.847,�k�k��,3.0,��
2018/01/02,10:30,0.900,1.495,0.940,1.781,1.195,0.493,0.880,0.846,�k��,3.0,��
2018/01/02,10:40,0.899,1.496,0.940,1.780,1.192,0.493,0.883,0.847,���k��,2.2,��
2018/01/02,10:50,0.898,1.495,0.940,1.779,1.197,0.495,0.881,0.848,���k��,2.6,��
2018/01/02,11:00,0.899,1.495,0.941,1.780,1.197,0.495,0.884,0.847,���쓌,2.6,��
2018/01/02,11:10,0.901,1.494,0.941,1.779,1.199,0.495,0.882,0.846,��,1.9,��
2018/01/02,11:20,0.898,1.497,0.940,1.779,1.197,0.494,0.884,0.845,���쓌,2.6,��
2018/01/02,11:30,0.900,1.499,0.942,1.780,1.201,0.493,0.885,0.846,��,3.2,��
2018/01/02,11:40,0.901,1.498,0.941,1.781,1.200,0.494,0.885,0.850,���쓌,4.3,��
2018/01/02,11:50,0.902,1.497,0.941,1.777,1.199,0.494,0.887,0.847,�쓌,3.4,��
2018/01/02,12:00,0.901,1.496,0.942,1.782,1.201,0.495,0.883,0.848,�쓌,3.0,��
2018/01/02,12:10,0.901,1.497,0.942,1.781,1.200,0.495,0.885,0.848,���쓌,2.9,��
2018/01/02,12:20,0.902,1.499,0.942,1.780,1.200,0.493,0.887,0.847,��,2.9,��
2018/01/02,12:30,0.902,1.497,0.943,1.780,1.200,0.495,0.884,0.850,���k��,7.2,��
2018/01/02,12:40,0.902,1.498,0.943,1.780,1.200,0.495,0.887,0.847,��,7.8,��
2018/01/02,12:50,0.902,1.500,0.945,1.778,1.202,0.495,0.887,0.848,��,8.0,��
2018/01/02,13:00,0.902,1.500,0.944,1.781,1.201,0.497,0.885,0.849,��,7.4,��
2018/01/02,13:10,0.904,1.501,0.941,1.781,1.200,0.495,0.884,0.850,���쐼,8.5,��
2018/01/02,13:20,0.902,1.500,0.945,1.779,1.200,0.495,0.886,0.849,��,8.3,��
2018/01/02,13:30,0.903,1.501,0.942,1.782,1.201,0.497,0.885,0.845,��,10.0,��
2018/01/02,13:40,0.902,1.498,0.945,1.783,1.201,0.496,0.885,0.846,��,7.9,��
2018/01/02,13:50,0.901,1.502,0.944,1.781,1.201,0.498,0.886,0.848,���k��,8.6,��
2018/01/02,14:00,0.901,1.500,0.944,1.781,1.203,0.496,0.886,0.847,�k�k��,4.9,��
2018/01/02,14:10,0.902,1.500,0.945,1.780,1.202,0.495,0.886,0.846,���k��,4.1,��
2018/01/02,14:20,0.903,1.500,0.946,1.785,1.201,0.496,0.887,0.847,��,6.2,��
2018/01/02,14:30,0.903,1.499,0.946,1.785,1.202,0.497,0.886,0.849,��,8.7,��
2018/01/02,14:40,0.903,1.500,0.944,1.785,1.202,0.498,0.884,0.851,��,7.3,��
2018/01/02,14:50,0.903,1.502,0.944,1.784,1.200,0.497,0.886,0.849,��,8.3,��
2018/01/02,15:00,0.903,1.502,0.946,1.784,1.200,0.496,0.886,0.849,��,5.6,��
2018/01/02,15:10,0.902,1.501,0.943,1.785,1.202,0.496,0.885,0.847,���k��,4.9,��
2018/01/02,15:20,0.903,1.503,0.945,1.785,1.200,0.496,0.886,0.848,�k��,3.8,��
2018/01/02,15:30,0.902,1.501,0.947,1.783,1.202,0.497,0.885,0.848,�k�k��,2.8,��
2018/01/02,15:40,0.902,1.505,0.945,1.783,1.204,0.498,0.885,0.848,�k�k��,4.4,��
2018/01/02,15:50,0.903,1.503,0.945,1.783,1.201,0.497,0.885,0.846,�k��,3.8,��
2018/01/02,16:00,0.900,1.503,0.945,1.783,1.202,0.496,0.884,0.850,�k��,3.3,��
2018/01/02,16:10,0.900,1.502,0.943,1.782,1.202,0.498,0.885,0.850,�k�k��,5.1,��
2018/01/02,16:20,0.903,1.503,0.945,1.783,1.201,0.496,0.885,0.848,�k�k��,4.8,��
2018/01/02,16:30,0.900,1.503,0.945,1.783,1.202,0.496,0.883,0.847,�k�k��,4.8,��
2018/01/02,16:40,0.900,1.499,0.946,1.782,1.201,0.498,0.884,0.847,�k��,4.2,��
2018/01/02,16:50,0.900,1.501,0.945,1.783,1.202,0.497,0.882,0.847,�k��,3.6,��
2018/01/02,17:00,0.901,1.498,0.943,1.783,1.202,0.495,0.883,0.847,���k��,3.6,��
2018/01/02,17:10,0.899,1.501,0.943,1.781,1.200,0.496,0.884,0.847,��,3.0,��
2018/01/02,17:20,0.901,1.499,0.945,1.780,1.199,0.494,0.883,0.849,���쐼,2.8,��
2018/01/02,17:30,0.900,1.499,0.943,1.778,1.200,0.493,0.885,0.846,���쐼,3.8,��
2018/01/02,17:40,0.899,1.501,0.943,1.783,1.201,0.495,0.883,0.848,���쐼,4.4,��
2018/01/02,17:50,0.900,1.501,0.943,1.780,1.195,0.495,0.885,0.845,���쐼,4.9,��
2018/01/02,18:00,0.900,1.501,0.941,1.782,1.200,0.493,0.883,0.848,���쐼,5.4,��
2018/01/02,18:10,0.899,1.502,0.942,1.778,1.202,0.496,0.883,0.847,��,4.5,��
2018/01/02,18:20,0.899,1.500,0.942,1.780,1.200,0.496,0.882,0.844,���쐼,4.1,��
2018/01/02,18:30,0.901,1.502,0.942,1.779,1.198,0.495,0.884,0.847,���쐼,3.7,��
2018/01/02,18:40,0.900,1.501,0.943,1.780,1.200,0.495,0.884,0.845,��,2.8,��
2018/01/02,18:50,0.900,1.500,0.943,1.783,1.201,0.495,0.883,0.847,���k��,3.0,��
2018/01/02,19:00,0.899,1.499,0.942,1.782,1.201,0.495,0.884,0.848,�k�k��,2.2,��
2018/01/02,19:10,0.899,1.498,0.942,1.781,1.199,0.494,0.883,0.848,�k�k��,6.1,��
2018/01/02,19:20,0.901,1.501,0.943,1.780,1.201,0.494,0.883,0.844,�k�k��,6.1,��
2018/01/02,19:30,0.900,1.501,0.943,1.783,1.200,0.494,0.883,0.847,�k�k��,5.6,��
2018/01/02,19:40,0.903,1.499,0.942,1.781,1.200,0.495,0.886,0.847,�k,4.9,��
2018/01/02,19:50,0.901,1.500,0.943,1.783,1.200,0.495,0.883,0.849,�k�k��,5.8,��
2018/01/02,20:00,0.900,1.502,0.942,1.782,1.201,0.493,0.883,0.846,�k�k��,4.9,��
2018/01/02,20:10,0.901,1.501,0.942,1.782,1.199,0.494,0.883,0.848,�k�k��,4.6,��
2018/01/02,20:20,0.902,1.501,0.943,1.782,1.199,0.495,0.883,0.849,�k�k��,5.6,��
2018/01/02,20:30,0.900,1.499,0.942,1.781,1.199,0.494,0.882,0.848,�k�k��,5.2,��
2018/01/02,20:40,0.901,1.503,0.941,1.781,1.202,0.496,0.883,0.847,�k�k��,4.4,��
2018/01/02,20:50,0.899,1.502,0.944,1.779,1.201,0.494,0.884,0.848,���k��,1.5,��
2018/01/02,21:00,0.900,1.501,0.942,1.785,1.202,0.495,0.882,0.847,�k�k��,3.1,��
2018/01/02,21:10,0.902,1.501,0.942,1.782,1.199,0.497,0.882,0.846,���쐼,3.2,��
2018/01/02,21:20,0.901,1.502,0.943,1.780,1.203,0.494,0.883,0.847,�쐼,9.7,��
2018/01/02,21:30,0.902,1.500,0.944,1.782,1.199,0.494,0.885,0.848,�쐼,10.8,��
2018/01/02,21:40,0.900,1.499,0.942,1.780,1.200,0.495,0.884,0.849,���쐼,8.5,��
2018/01/02,21:50,0.902,1.502,0.941,1.780,1.200,0.495,0.882,0.849,��,3.5,��
2018/01/02,22:00,0.899,1.502,0.943,1.785,1.198,0.494,0.884,0.847,���쐼,4.3,��
2018/01/02,22:10,0.902,1.501,0.942,1.781,1.199,0.495,0.883,0.845,���쐼,4.1,��
2018/01/02,22:20,0.902,1.502,0.942,1.783,1.197,0.496,0.885,0.846,�k��,2.3,��
2018/01/02,22:30,0.901,1.498,0.942,1.781,1.200,0.497,0.884,0.849,�k,2.2,��
2018/01/02,22:40,0.899,1.499,0.943,1.780,1.200,0.494,0.884,0.847,-,CALM,��
2018/01/02,22:50,0.900,1.498,0.942,1.782,1.201,0.495,0.883,0.848,��,5.0,��
2018/01/02,23:00,0.900,1.498,0.943,1.780,1.202,0.494,0.885,0.847,�k�k��,4.7,��
2018/01/02,23:10,0.900,1.502,0.943,1.781,1.201,0.495,0.884,0.847,�k,8.2,��
2018/01/02,23:20,0.901,1.502,0.942,1.778,1.200,0.493,0.883,0.848,�k�k��,6.9,��
2018/01/02,23:30,0.902,1.502,0.942,1.780,1.199,0.496,0.883,0.848,�k�k��,5.6,��
2018/01/02,23:40,0.900,1.501,0.941,1.782,1.202,0.495,0.884,0.849,�k��,4.1,��
2018/01/02,23:50,0.899,1.501,0.942,1.781,1.199,0.495,0.884,0.847,�k�k��,5.9,��
